Preview of NWS' New Version of Forecast
This preview is not operational and should not be used for support decisions.
Latest weather observations around

Huntsville, Huntsville International / Jones Field (KHSV)

Using English Units (Switch to International System of Units)
Date/ Time (CDT) Wind (mph) Vis. (mi) Weather Sky Cond. Temp (°F) Rel. Humidity Wind Chill (°F) Heat Index (°F) Pressure Precip. (in)
Air Dwpt 6 hour Altimeter (inHg) Sea level (inHg) 1 hr 3 hr 6 hr
Max Min
Apr 22 14:53 Calm 10 Clear CLR 80 54     41%   80 30.15 30.14      
Apr 22 13:53 WSW 7 10 Mostly Clear FEW250 80 52     38%   80 30.17 30.16      
Apr 22 12:53 3 10 Mostly Clear FEW250 78 51     39%   77 30.18 30.17      
Apr 22 11:53 3 10 Mostly Clear FEW250 76 49     39%   75 30.19 30.17      
Apr 22 10:53 Calm 10 Mostly Clear FEW250 73 50     44%   72 30.21 30.19      
Apr 22 09:53 SSE 5 10 Mostly Clear FEW250 68 51     55%     30.22 30.21      
Apr 22 08:53 ESE 5 10 Mostly Clear FEW250 62 50     65%     30.22 30.21      
Apr 22 07:53 ESE 5 10 Mostly Clear FEW250 55 50     83%     30.22 30.21      
Apr 22 06:53 E 6 10 Mostly Clear FEW250 51 47     86%     30.2 30.19      
Apr 22 05:53 Calm 10 Clear CLR 49 46     90%     30.19 30.17      
Apr 22 04:53 E 6 10 Clear CLR 48 45     89% 45   30.16 30.15      
Apr 22 03:53 E 5 10 Clear CLR 49 46     90% 47   30.16 30.14      
Apr 22 02:53 E 5 10 Clear CLR 50 47     89%     30.15 30.14      
Apr 22 01:53 E 3 10 Clear CLR 53 46     77%     30.15 30.14      
Apr 22 00:53 E 5 10 Clear CLR 54 46     74%     30.16 30.14      
Apr 21 23:53 E 3 10 Clear CLR 55 47     74%     30.16 30.14      
Apr 21 22:53 E 5 10 Clear CLR 58 48     70%     30.15 30.14      
Apr 21 21:53 E 6 10 Clear CLR 58 49     72%     30.15 30.14      
Apr 21 20:53 ESE 3 10 Clear CLR 62 48     60%     30.13 30.12      
Apr 21 19:53 ESE 5 10 Clear CLR 65 48     54%     30.11 30.11      
Apr 21 18:53 Calm 10 Clear CLR 73 46     38%   72 30.1 30.09      
Apr 21 17:53 Calm 10 Clear CLR 75 48     38%   74 30.1 30.09      
Apr 21 16:53 5 10 Clear CLR 75 47     37%   74 30.1 30.09      
Apr 21 15:53 N 6 10 Clear CLR 77 48     36%   76 30.1 30.09      
Apr 21 14:53 SW 3 10 Clear CLR 73 44     35%   72 30.12 30.11      
Apr 21 13:53 WSW 5 10 Clear CLR 72 45     38%   71 30.13 30.12      
Apr 21 12:53 WNW 5 10 Clear CLR 71 43     36%   70 30.14 30.13      
Apr 21 11:53 3 10 Clear CLR 69 41     36%     30.15 30.14      
Apr 21 10:53 Calm 10 Clear CLR 65 42     43%     30.14 30.14      
Apr 21 09:53 3 10 Clear CLR 62 44     52%     30.14 30.14      
Apr 21 08:53 WSW 5 10 Clear CLR 54 45     72%     30.13 30.13      
Apr 21 07:53 S 3 10 Clear CLR 46 42     86% 45   30.12 30.11      
Apr 21 06:53 E 5 10 Patchy Fog CLR 40 39     97% 37   30.09 30.09      
Apr 21 05:53 Calm 10 Patchy Fog CLR 39 37     93%     30.07 30.07      
Apr 21 04:53 Calm 10 Clear CLR 39 38     96%     30.05 30.04      
Apr 21 03:53 Calm 10 Clear CLR 39 39     100%     30.02 30.02      
Apr 21 02:53 Calm 10 Clear CLR 40 39     97%     30 30      
Apr 21 01:53 SSW 5 10 Clear CLR 41 40     96% 38   29.99 29.99      
Apr 21 00:53 Calm 10 Clear CLR 43 41     93%     29.98 29.98      
Apr 20 23:53 ESE 3 10 Clear CLR 44 40     85% 43   29.98 29.97      
Apr 20 22:53 Calm 10 Clear CLR 46 40     79%     29.96 29.96      
Apr 20 21:53 Calm 10 Clear CLR 49 38     66%     29.95 29.95      
Apr 20 20:53 W 3 10 Mostly Clear FEW075 52 39     61%     29.93 29.93      
Apr 20 19:53 W 3 10 Mostly Clear FEW075 54 39     57%     29.9 29.9      
Apr 20 18:53 WNW 8 10 Mostly Cloudy BKN075 60 37     42%     29.88 29.88      
Apr 20 17:53 WNW 9 10 Mostly Cloudy BKN070 61 41     48%     29.85 29.85      
Apr 20 16:53 W 9 10 Mostly Cloudy BKN070 60 44     55%     29.84 29.83      
Apr 20 15:53 7 10 Mostly Cloudy BKN060 59 47     64%     29.84 29.83      
Apr 20 14:53 W 7 10 Cloudy OVC045 56 44     64%     29.83 29.83      
Apr 20 13:53 WNW 9 10 Cloudy OVC038 54 42     64%     29.83 29.82      
Apr 20 12:53 W 10 10 Cloudy OVC031 51 41     68%     29.82 29.82     0
Apr 20 12:28 WNW 14 10 Cloudy OVC030 51 41     68%     29.82        
Apr 20 11:53 WNW 11 10 Cloudy OVC027 49 40     71% 44   29.82 29.81      
Apr 20 10:53 WNW 9 10 Cloudy OVC025 47 41     80% 43   29.8 29.8      
Apr 20 09:53 NW 14 10 Cloudy FEW017 OVC025 47 41     80% 41   29.78 29.78 0 0  
Apr 20 09:23 WNW 13 10 Cloudy BKN017 OVC025 45 41     86% 39   29.76   0    
Apr 20 08:53 WNW 10 10 Light Drizzle BKN013 OVC020 45 41     86% 40   29.74 29.74 0    
Apr 20 08:29 WNW 9 10 Light Drizzle BKN014 OVC021 45 42     90% 40   29.73   0    
Apr 20 07:53 WNW 8 10 Light Drizzle BKN015 OVC025 45 42     90% 41   29.71 29.71 0    
Apr 20 06:53 WNW 8 10 Cloudy FEW014 BKN019 OVC034 43 41     93% 38   29.7 29.7 0   0
Apr 20 05:53 W 8 10 Light Drizzle FEW010 BKN017 OVC049 43 41     93% 38   29.68 29.67 0    
Apr 20 05:36 WNW 9 10 Light Rain FEW008 BKN015 OVC049 43 41     93% 38   29.67   0    
Apr 20 05:06 NW 8 10 Light Rain BKN013 OVC017 43 41     93% 38   29.66   0    
Apr 20 04:53 NW 9 10 Light Rain BKN015 BKN025 OVC036 43 41     93% 38   29.66 29.66 0    
Apr 20 04:51 WNW 7 10 Light Rain BKN017 BKN025 OVC036 43 41     93% 39   29.66   0    
Apr 20 03:53 WNW 7 10 Cloudy FEW027 BKN055 OVC070 43 41     93% 39   29.65 29.65 0 0  
Apr 20 03:02 WNW 11 10 Light Rain FEW012 SCT019 OVC039 43 41     93% 37   29.65   0    
Apr 20 02:53 WNW 11 10 Light Rain BKN013 BKN022 OVC039 44 42     93% 38   29.65 29.64 0    
Apr 20 02:40 W 8 10 Light Rain BKN013 OVC022 44 42     93% 40   29.64   0    
Apr 20 02:33 WNW 10 10 Light Rain SCT013 BKN024 OVC033 44 42     93% 39   29.64   0    
Apr 20 01:53 WNW 11 10 Light Rain FEW019 SCT024 OVC030 44 42     93% 38   29.65 29.64 0    
Apr 20 01:33 W 11 10 Light Rain FEW011 BKN023 OVC032 44 42     93% 38   29.65   0    
Apr 20 00:53 W 7 10 Light Rain FEW024 OVC036 44 42     93% 40   29.66 29.65 0   0
Apr 20 00:44 WNW 7 10 Light Rain SCT026 OVC038 44 41     89% 40   29.66   0    
Apr 19 23:53 WNW 10 10 Cloudy SCT022 BKN028 OVC047 44 41     89% 39   29.66 29.66 0    
Apr 19 23:08 WNW 11 10 Light Rain FEW013 SCT025 OVC045 44 41     89% 38   29.66   0    
Apr 19 22:53 W 9 10 Light Rain FEW012 BKN017 OVC039 44 42     93% 39   29.66 29.66 0    
Apr 19 22:41 WNW 7 10 Light Rain FEW012 BKN024 OVC041 44 42     93% 40   29.67   0    
Apr 19 21:53 WNW 11 10 Cloudy OVC042 44 41     89% 38   29.67 29.67   0  
Apr 19 20:53 WNW 14 10 Cloudy FEW015 BKN047 OVC070 44 41     89% 37   29.67 29.67 0    
Apr 19 20:19 WNW 9 10 Light Rain FEW018 SCT023 OVC039 44 41     89% 39   29.66   0    
Apr 19 19:53 WNW 13 10 Light Rain FEW017 BKN023 OVC033 45 42     90% 39   29.66 29.65 0    
Apr 19 19:39 WNW 10 10 Light Rain FEW015 BKN023 OVC033 45 42     90% 40   29.65   0    
Apr 19 18:53 WNW 14 10 Light Rain SCT021 SCT029 OVC043 45 42     90% 39   29.64 29.63 0   0
Apr 19 18:44 WNW 14 10 Light Rain FEW016 SCT021 OVC041 45 42     90% 39   29.64   0    
Apr 19 18:23   10 Light Rain SCT016 BKN021 OVC050 46 43     89%     29.63   0    
Apr 19 17:53 WNW 16 10 Light Rain FEW013 BKN041 OVC050 46 43     89% 39   29.62 29.62 0    
Apr 19 17:42 WNW 15 10 Light Rain SCT013 BKN027 OVC038 46 44     93% 40   29.62   0    
Apr 19 17:31 W 11 10 Light Rain FEW013 BKN040 OVC047 47 44     90% 42   29.62   0    
Apr 19 17:09 WNW 17 8 Light Rain SCT010 BKN016 OVC047 47 45     93% 40   29.61   0    
Apr 19 16:53 W 13 8 Rain BKN011 BKN016 OVC029 47 46     97% 41   29.6 29.59 0    
Apr 19 16:33 WNW 13 4 Light Rain and Fog/Mist SCT008 BKN014 OVC021 48 46     93% 43   29.59   0    
Apr 19 16:25 WNW 13 2 Light Rain and Fog/Mist BKN008 OVC014 48 46     93% 43   29.58   0    
Apr 19 16:18 WNW 16 1 Light Rain and Fog/Mist BKN008 BKN014 OVC037 48 47     96% 42   29.58   0    
Apr 19 15:53 WNW 13 1 Light Rain and Fog/Mist SCT007 BKN015 OVC037 49 48     97% 44   29.57 29.56 0 0  
Apr 19 15:36 WNW 13 1 Rain and Fog/Mist SCT007 BKN014 OVC019 50 49     96%     29.56   0    
Apr 19 15:30 WNW 13 2 Rain and Fog/Mist FEW007 BKN017 OVC023 50 49     96%     29.56   0    
Apr 19 15:09 WNW 11 3 Light Rain and Fog/Mist FEW009 BKN020 OVC035 51 49     92%     29.55   0    
Apr 19 14:53 WNW 14 5 Light Rain and Fog/Mist FEW010 BKN017 OVC035 52 49     89%     29.55 29.54 0    
May 15 04:53 Calm 10 Mostly Cloudy BKN065 70 68     93%     29.98 29.96      
May 14 10:53 N 8 10 Mostly Clear FEW050 88 64     45%   89 30.07 30.04      
May 11 20:53 S 8 10 Clear CLR 75 60     60%   75 30.05 30.03      
May 11 16:53 SW 11 10 Mostly Clear FEW090 89 57     34%   88 30.04 30.01      
Jun 12 04:53 SE 7 10 Partly Cloudy SCT025 72 70     93%   73 30.13 30.1      
Jun 11 22:53 ESE 3 10 Clear CLR 78 70     76%   79 30.12 30.09      
Jun 10 17:53 S 10 10 Partly Cloudy FEW060 SCT 85 61     45%   85 30.03 30.01      
Jun 09 19:53 W 3 10 Mostly Clear FEW080 77 60     56%   77   29.92      
Jun 08 19:53 NNW 6 10 Partly Cloudy SCT250 73 56     55%   73 29.89 29.87      
Jun 07 10:53 NE 17 10 Mostly Clear FEW050 FEW250 78 53     42%   78 29.89 29.87